This is the latest recevied weather packets stored in our database for station/object W4DHW-4. If no packets are shown the sender has not sent any weather packets the latest 10 day(s).
| Time | Temp. | Humidity | Pressure | Rain* | Wind** | Luminosity | Snow |
|---|---|---|---|---|---|---|---|
| 1777984525 | 15° C | 76% | 1015.4 hPa | 0 mm | - | 312 W/m² | - |
| 1777984221 | 15° C | 76% | 1015.5 hPa | 0 mm | - | 300 W/m² | - |
| 1777983919 | 14.44° C | 76% | 1015.4 hPa | 0 mm | - | 286 W/m² | - |
| 1777983615 | 13.89° C | 77% | 1015.5 hPa | 0 mm | - | 274 W/m² | - |
| 1777983312 | 13.33° C | 81% | 1015.3 hPa | 0 mm | - | 235 W/m² | - |
| 1777983009 | 12.78° C | 84% | 1015.4 hPa | 0 mm | - | 228 W/m² | - |
| 1777982705 | 12.22° C | 85% | 1015.4 hPa | 0 mm | - | 199 W/m² | - |
| 1777982404 | 11.67° C | 86% | 1015.6 hPa | 0 mm | - | 195 W/m² | - |
| 1777982100 | 11.11° C | 87% | 1015.5 hPa | 0 mm | - | 165 W/m² | - |
| 1777981799 | 10.56° C | 88% | 1015.2 hPa | 0 mm | - | 94 W/m² | - |
| 1777981495 | 10.56° C | 89% | 1015.3 hPa | 0 mm | - | 113 W/m² | - |
| 1777981192 | 10° C | 89% | 1015.4 hPa | 0 mm | - | 87 W/m² | - |
| 1777980888 | 10° C | 91% | 1015.4 hPa | 0 mm | - | 89 W/m² | - |
| 1777980583 | 9.44° C | 92% | 1015.2 hPa | 0 mm | - | 76 W/m² | - |
| 1777980281 | 9.44° C | 93% | 1015.3 hPa | 0 mm | - | 67 W/m² | - |
| 1777979978 | 8.89° C | 94% | 1015.1 hPa | 0 mm | - | 62 W/m² | - |
| 1777979672 | 8.89° C | 94% | 1015.3 hPa | 0 mm | - | 55 W/m² | - |
| 1777979369 | 8.33° C | 95% | 1015.1 hPa | 0 mm | - | 50 W/m² | - |
| 1777979066 | 8.33° C | 95% | 1014.7 hPa | 0 mm | - | 43 W/m² | - |
| 1777978762 | 8.33° C | 95% | 1014.7 hPa | 0 mm | - | 37 W/m² | - |
| 1777978459 | 7.78° C | 96% | 1014.7 hPa | 0 mm | - | 32 W/m² | - |
| 1777978155 | 7.78° C | 95% | 1014.4 hPa | 0 mm | - | 20 W/m² | - |
| 1777977852 | 7.78° C | 95% | 1014.6 hPa | 0 mm | - | 15 W/m² | - |
| 1777977548 | 7.78° C | 95% | 1014.4 hPa | 0 mm | - | 10 W/m² | - |
| 1777977247 | 7.78° C | 95% | 1014.7 hPa | 0 mm | - | 6 W/m² | - |
* Rain latest hour (hover to see other rain measurements)
** Current wind speed in m/s (hover to see current wind gust speed)